Location: Brede
(50.9167°N, 0.6000°E)
Time: 20:44:19
(UTC+00:00)

Altair - Pass Details

Date: 06 August 2021
Orbit: 1501 x 1682 km, 47.2° (Epoch: 22 September)

Event Time Altitude Azimuth Distance (km) Brightness Sun altitude
Exits shadow 01:56:54 16° 244° (WSW) 3,267 8.7 -18.0°
Maximum altitude 02:04:40 66° 166° (SSE) 1,642 7.4 -17.4°
Drops below altitude 10° 02:13:43 10° 87° (E) 3,659 9.9 -16.7°
Sets 02:16:45 0° 85° (E) 4,637 10.6 -16.4°
